軌道要素
Epoch 2016 May 12.0 TT = JDT 2457520.5
T 2016 May 26.89719 TT Rudenko
q 4.8833083 (2000.0) P Q
z +0.0260345 Peri. 180.59783 +0.99445340 +0.09830680
+/-0.0000000 Node 173.40039 -0.09509843 +0.99227939
e 0.8728653 Incl. 18.98677 -0.04493019 +0.07561338
From 3562 observations 2011 May 21-2020 Mar. 20, mean residual 0".4.
|